Regional Weather Roundup
Issued by NWS

Home | Current Version | Previous Version | Graphics & Text | Print | Product List | Glossary On
Versions: 1 2 3 4 5 6 7 8 9 10 11 12 13 14 15 16 17 18 19 20 21 22 23 24 25 26 27 28 29 30 31 32 33 34 35 36 37 38 39 40 41 42 43 44 45 46 47 48 49 50
000
ASUS43 KMPX 010810
RWRMN
WEATHER ROUNDUP FOR MINNESOTA
NATIONAL WEATHER SERVICE TWIN CITIES/CHANHASSEN MN
300 AM CDT SAT AUG 01 2015


NOTE: "FAIR" INDICATES FEW OR NO CLOUDS BELOW 12,000 FEET WITH NO
SIGNIFICANT WEATHER AND/OR OBSTRUCTIONS TO VISIBILITY. N/A MEANS
CURRENT SKY AND/OR WEATHER CONDITIONS ARE NOT AVAILABLE.

MNZ060>063-068>070-010900-
   Twin Cities Metro

CITY           SKY/WX    TMP DP  RH WIND       PRES   REMARKS
TWIN CITIES    PTCLDY    70  58  65 SW3       29.99F
ST PAUL        MOCLDY    67  60  78 CALM      29.98F
CRYSTAL        PTCLDY    69  58  67 W6        29.97F
BLAINE         PTCLDY    68  59  73 CALM      29.99S
LAKEVILLE      PTCLDY    61  57  88 CALM      29.99F
EDEN PRAIRIE   MOCLDY    65  59  81 SW5       29.98F
SOUTH ST PAUL  MOCLDY    69  58  68 W6        29.98F
LAKE ELMO      FAIR      63  59  88 CALM      30.00F
$$
MNZ001>005-007-008-013>017-022>024-027-028-010900-
   Northwest Minnesota

CITY           SKY/WX    TMP DP  RH WIND       PRES   REMARKS
BEMIDJI        CLEAR     54  50  85 CALM      29.97F
HALLOCK        CLEAR     52  48  87 CALM      29.94S
ROSEAU         CLEAR     54  48  82 SW3       29.93F
WARROAD        CLEAR     57  54  88 W7        29.93F
THIEF RVR FALL CLEAR     55  50  82 CALM      29.96F
CROOKSTON      CLEAR     54  52  94 CALM      29.96F
FOSSTON        CLEAR     52  50  93 S5        29.98F
DETROIT LAKES  CLEAR     57  54  88 S3        30.01S
MOORHEAD       CLEAR     57  55  94 CALM      29.99F
PARK RAPIDS    CLEAR     54  50  86 W5        29.99F
MAHNOMEN       FAIR      55  51  89 S5        29.98F
$$
MNZ006-009>011-018-025>026-010900-
   North Central Minnesota

CITY           SKY/WX    TMP DP  RH WIND       PRES   REMARKS
BAUDETTE       CLEAR     56  50  80 W7        29.92F
FLAG ISLAND    CLEAR     63  54  72 W12       29.89F
INTL FALLS     CLEAR     55  50  83 W6        29.91F
WASKISH        CLEAR     66  57  72 W7        29.94F
BIG FORK       CLEAR     50  48  93 CALM      29.95F
LONGVILLE      CLEAR     52  52 100 CALM      29.97F
GRAND RAPIDS   CLEAR     57  50  77 CALM      29.96F
CRANE LAKE     CLEAR     48  48 100 S2        29.93F
ORR            CLEAR     54  48  82 CALM      29.91F
COOK           CLEAR     48  48 100 CALM      29.94F
WALKER         FAIR      52  51  95 W3        29.98S
$$
MNZ012-019>021-037-010900-
   Northeast Minnesota

CITY           SKY/WX    TMP DP  RH WIND       PRES   REMARKS
DULUTH         CLEAR     59  49  69 W8        29.94S
ELY            CLEAR     52  50  93 CALM      29.92S
HIBBING        CLEAR     57  47  69 W5        29.94F
EVELETH        CLEAR     52  45  76 CALM      29.95S
DULUTH HARBOR  CLEAR     64  54  68 W9        29.94S
TWO HARBORS    CLEAR     57  52  82 W3        29.91S
SILVER BAY     CLEAR     57  52  82 W3        29.89S
GRAND MARAIS     N/A     64  54  69 NW9       29.84F
G MARAIS ARPRT CLOUDY    55  52  88 W5        29.89S
$$
MNZ029>031-032-039>041-046>048-054>057-064-010900-
   West Central Minnesota

CITY           SKY/WX    TMP DP  RH WIND       PRES   REMARKS
FERGUS FALLS   CLEAR     61  61 100 CALM      29.99F
WHEATON        CLEAR     57  55  94 CALM      30.01S
MORRIS         CLEAR     63  61  94 E3        29.98F
ALEXANDRIA     CLEAR     62  60  93 CALM      30.02F
ELBOW LAKE     FAIR      64  62  94 CALM      30.00F
WADENA         CLEAR     54  52  94 CALM      30.00S
GLENWOOD       CLEAR     63  59  88 N3        30.01F
APPLETON       CLEAR     61  57  88 CALM      29.99S
BENSON         CLEAR     57  55  94 CALM      29.99S
ORTONVILLE     CLEAR     64  59  82 W3        30.00S
MADISON        CLEAR     61  57  88 W6        30.00S
WILLMAR        FAIR      63  59  88 CALM      30.00F
$$
MNZ033>034-036-042>043-049>051-058-059-010900-
   Central Minnesota

CITY           SKY/WX    TMP DP  RH WIND       PRES   REMARKS
ST CLOUD       PTCLDY    60  59  96 CALM      29.99F
SAUK CENTRE    FAIR      60  58  94 CALM      30.00F
PAYNESVILLE    CLEAR     56  56 100 CALM      30.00F
AITKIN         CLEAR     54  48  82 CALM      29.97S
PINE RIVER     CLEAR     52  48  87 CALM      30.02S
BRAINERD       CLEAR     54  53  97 S5        29.99F
STAPLES        CLEAR     57  55  94 CALM      30.00S
LONG PRAIRIE   CLOUDY    59  59 100 CALM      30.01F
LITTLE FALLS   MOCLDY    59  54  82 CALM      29.99F
LITCHFIELD     CLEAR     64  61  88 CALM      30.00F
BUFFALO        PTCLDY    64  59  85 CALM      30.00F
MAPLE LAKE     PTCLDY    61  59  94 CALM      30.00F
$$
MNZ037-044-045-052-053-010900-
   East Central Minnesota

CITY           SKY/WX    TMP DP  RH WIND       PRES   REMARKS
PRINCETON      PTCLDY    61  57  88 CALM      29.99F
MORA           PTCLDY    55  52  88 CALM      30.00F
CAMBRIDGE      PTCLDY    66  55  68 W1        29.97F
RUSH CITY      CLOUDY    57  55  91 CALM      29.99F
MOOSE LAKE     PTCLDY    54  50  87 SW3       29.96S
HINCKLEY       FAIR      54  54 100 CALM      29.98S
CLOQUET        CLEAR     57  46  67 W6        29.96S
MCGREGOR       CLEAR     59  52  77 W5        29.98S
$$
MNZ071>073-080-081-089-090-097-098-010900-
   Southwest Minnesota

CITY           SKY/WX    TMP DP  RH WIND       PRES   REMARKS
MONTEVIDEO     CLEAR     64  57  77 W5        30.01S
GRANITE FALLS  CLEAR     58  57  96 W5        30.01F
CANBY          CLEAR     67  59  77 W6        30.02S
MARSHALL       CLEAR     70  57  64 W13       30.02S
REDWOOD FALLS  CLEAR     63  59  87 NW5       29.99F
OLIVIA         CLEAR     59  54  82 SW5       29.99S
PIPESTONE      CLEAR     64  61  88 W5        30.05F
WINDOM         CLEAR     64  59  82 SW6       30.03F
WORTHINGTON    CLEAR     64  57  77 SW10      30.05F
JACKSON        CLEAR     64  59  82 SW6       30.04F
TRACY          CLEAR     68  61  77 W9        30.02S
SLAYTON        CLEAR     66  61  84 W7        30.05S
$$
MNZ065>067-074>077-082>085-091>093-010900-
   South Central Minnesota

CITY           SKY/WX    TMP DP  RH WIND       PRES   REMARKS
MANKATO        PTCLDY    64  55  72 S5        30.00F
NEW ULM        CLEAR     63  59  88 CALM      29.99F
ST JAMES       CLEAR     63  59  88 CALM      30.02S
FAIRMONT       CLEAR     64  55  72 SW6       30.02F
GLENCOE        CLEAR     65  61  86 CALM      29.98F
FARIBAULT      PTCLDY    64  61  88 SW3       30.01F
OWATONNA       PTCLDY    63  57  82 S9        30.01F
WASECA         PTCLDY    59  55  88 S3        30.03F
ALBERT LEA     CLEAR     64  61  88 SW3       30.03F
$$
MNZ078>079-086>088-094>096-010900-
   Southeast Minnesota

CITY           SKY/WX    TMP DP  RH WIND       PRES   REMARKS
ROCHESTER      MOCLDY    63  58  83 SW8       30.03F
RED WING       PTCLDY    61  57  88 CALM      29.98F
STANTON        PTCLDY    64  59  83 CALM      29.99S
DODGE CENTER   PTCLDY    61  57  88 SW8       30.02F
WINONA         PTCLDY    61  57  88 CALM      29.99F
AUSTIN         PTCLDY    63  59  88 CALM      30.03F
PRESTON        PTCLDY    63  56  79 SW5       30.03F
$$
ABBREVIATIONS USED IN REMARKS
   TC - TEMPERATURES IN CELSIUS
  WCI - WIND CHILL INDEX
   HX - HEAT INDEX
  VSB - VISIBILITY
$$



USA.gov is the U.S. government's official web portal to all federal, state and local government web resources and services.